Regional Weather Roundup
Issued by NWS

Home | Current Version | Previous Version | Text Only | Print | Product List | Glossary On
Versions: 1 2 3 4 5 6 7 8 9 10 11 12 13 14 15 16 17 18 19 20 21 22 23 24 25 26 27 28 29 30 31 32 33 34 35 36 37 38 39 40 41 42 43 44 45 46 47 48 49 50
765
ASUS44 KJAN 022303
RWRMS

MISSISSIPPI HOURLY WEATHER ROUNDUP
NATIONAL WEATHER SERVICE JACKSON MS
500 PM CST MON MAR 02 2015

NOTE: "FAIR: INDICATES FEW OR NO CLOUDS BELOW 12,000 FEET WITH NO
SIGNIFICANT WEATHER AND/OR OBSTRUCTIONS TO VISIBILITY.

MSZ001>002-007>008-010>013-018>021-025>028-034>036-030000-
NORTHWEST MISSISSIPPI

CITY           SKY/WX    TMP DP  RH WIND       PRES   REMARKS
CLARKSDALE     CLOUDY    39  39 100 N9        30.30F WCI  33
CLEVELAND      CLOUDY    39  39 100 NE12      30.29F FOG     WCI  32
GREENWOOD      CLOUDY    45  43  93 NE10      30.27F
GREENVILLE     CLOUDY    40  38  93 NE14      30.28F FOG     WCI  32
OXFORD         CLOUDY    39  37  93 MISG      30.33S FOG
TUNICA         DRIZZLE   39  36  87 N9        30.32F WCI  33
$$

MSZ003>006-009-014>017-022>024-029>033-037>039-030000-
NORTHEAST MISSISSIPPI

CITY           SKY/WX    TMP DP  RH WIND       PRES   REMARKS
COLUMBUS AFB   CLOUDY    46  45  96 NE7       30.28F
CORINTH        CLOUDY    45  39  81 CALM      30.31S
GOLDN TRIANGLE CLOUDY    48  45  87 NE9       30.27F
STARKVILLE     CLOUDY    46  45  93 NE6       30.28F
TUPELO         LGT RAIN  43  40  89 NE9       30.31F FOG
$$

MSZ040-058-030000-
CENTRAL MISSISSIPPI

CITY           SKY/WX    TMP DP  RH WIND       PRES   REMARKS
JACKSON INTL   LGT RAIN  53  52  96 N6        30.23F VSB 1/4
JACKSON HAWKNS LGT RAIN  51  51 100 VRB3      30.23F FOG
MERIDIAN KEY   CLOUDY    55  54  96 NE6       30.25S
MERIDIAN NAS   LGT RAIN  52  51  97 N5        30.25F FOG
VICKSBURG      CLOUDY    45  43  93 N8        30.26F
$$

MSZ059>079-030000-
SOUTH MISSISSIPPI

CITY           SKY/WX    TMP DP  RH WIND       PRES   REMARKS
BROOKHAVEN     CLOUDY    57  57 100 CALM      30.23S
HATTIESBURG    CLOUDY    63  62  97 E3        30.22F
MCCOMB         CLOUDY    63  62  97 CALM      30.20F
NATCHEZ        CLOUDY    46  45  93 NE3       30.24F
PINE BELT      CLOUDY    61  57  88 NE6       30.22F VSB 1
$$

MSZ080>082-030000-
COASTAL MISSISSIPPI

CITY           SKY/WX    TMP DP  RH WIND       PRES   REMARKS
BAY ST LOUIS   CLOUDY    66  64  94 CALM      30.20F FOG
BILOXI         CLOUDY    65  65 100 E2        30.20S FOG
PASCAGOULA     CLOUDY    65  64  97 SE7       30.21S FOG
GULFPORT       FOG       63  63 100 E6        30.20F VSB 1/4
$$



USA.gov is the U.S. government's official web portal to all federal, state and local government web resources and services.